Regional Weather Roundup
Issued by NWS

Home | Current Version | Previous Version | Graphics & Text | Print | Product List | Glossary On
Versions: 1 2 3 4 5 6 7 8 9 10 11 12 13 14 15 16 17 18 19 20 21 22 23 24 25 26 27 28 29 30 31 32 33 34 35 36 37 38 39 40 41 42 43 44 45 46 47 48 49 50
000
ASUS43 KLMK 261702
RWRKY
KENTUCKY REGIONAL WEATHER ROUNDUP
NATIONAL WEATHER SERVICE LOUISVILLE KY
100 PM EDT FRI AUG 26 2016

NOTE "FAIR" INDICATES FEW OR NO CLOUDS BELOW 12,000 FEET
WITH NO SIGNIFICANT WEATHER AND/OR OBSTRUCTIONS TO VISIBILITY.

KYZ001>023-026-027-061>063-070>075-261800-
WESTERN AND SOUTH CENTRAL KENTUCKY

CITY           SKY/WX    TMP DP  RH WIND       PRES   REMARKS
PADUCAH        MOSUNNY   91  74  57 CALM      30.09F HX 100
HENDERSON      SUNNY     90  73  58 E5        30.09F HX  98
OWENSBORO      MOSUNNY   89  76  65 SE3       30.12F HX 100
HOPKINSVILLE   MOSUNNY   91  73  55 N2        30.11F HX  98
BOWLING GREEN  PTSUNNY   91  72  53 CALM      30.13F HX  98
GLASGOW        MOSUNNY   89  73  58 E3        30.14F HX  96
$$

KYZ024-025-028>034-038-045-046-053-261800-
NORTH CENTRAL KENTUCKY

CITY           SKY/WX    TMP DP  RH WIND       PRES   REMARKS
LOUISVILLE/SDF PTSUNNY   90  70  51 E6        30.13F HX  95
LOUISVILLE/LOU SUNNY     89  69  51 E6        30.14F HX  93
FORT KNOX      MOSUNNY   85  73  65 CALM      30.13F HAZE    HX  92
$$

KYZ035>037-039>044-047>052-055>060-089>105-261800-
NORTHEAST KENTUCKY

CITY           SKY/WX    TMP DP  RH WIND       PRES   REMARKS
LEXINGTON      MOSUNNY   89  68  49 CALM      30.16F HX  93
COVINGTON      MOSUNNY   87  74  64 VRB5      30.14F HX  95
FRANKFORT      SUNNY     89  69  51 E6        30.14F HX  93
$$

KYZ054-064>069-076>088-106>120-261800-
SOUTHEAST KENTUCKY

CITY           SKY/WX    TMP DP  RH WIND       PRES   REMARKS
JACKSON        MOSUNNY   86  71  60 CALM      30.19F HX  91
LONDON         MOSUNNY   87  68  52 CALM      30.18F HX  90
SOMERSET       MOSUNNY   88  70  55 CALM      30.17F HX  92
MIDDLESBORO    MOSUNNY   88  74  62 E5        30.18F HX  96
MONTICELLO     PTSUNNY  N/A N/A N/A VRB5      30.18F
$$





USA.gov is the U.S. government's official web portal to all federal, state and local government web resources and services.